Time,TemperatureF,DewpointF,PressureIn,WindDirection,WindDirectionDegrees,WindSpeedMPH,WindSpeedGustMPH,Humidity,HourlyPrecipIn,Conditions,Clouds,dailyrainin,SoftwareType,DateUTC
2013-04-29 00:01:00,66.0,42.9,30.03,NNE,22,0.9,2.0,43,0.00,,---,0.00,VWS V13.01,2013-04-28 21:01:00,
2013-04-29 00:06:00,66.0,42.9,30.03,NNW,337,0.0,1.1,43,0.00,,---,0.00,VWS V13.01,2013-04-28 21:06:00,
2013-04-29 00:11:00,65.8,42.7,30.03,NNE,22,0.0,1.1,43,0.00,,---,0.00,VWS V13.01,2013-04-28 21:11:00,
2013-04-29 00:16:00,65.7,42.6,30.03,NNW,337,0.0,2.0,43,0.00,,---,0.00,VWS V13.01,2013-04-28 21:16:00,
2013-04-29 00:21:00,65.5,42.4,30.03,NNE,22,0.0,2.0,43,0.00,,---,0.00,VWS V13.01,2013-04-28 21:21:00,
2013-04-29 00:26:00,65.3,42.2,30.04,North,0,0.0,2.0,43,0.00,,---,0.00,VWS V13.01,2013-04-28 21:26:00,
2013-04-29 00:31:00,65.1,42.1,30.04,NNE,22,1.6,3.1,43,0.00,,---,0.00,VWS V13.01,2013-04-28 21:31:00,
2013-04-29 00:36:00,65.1,42.1,30.04,North,0,0.0,1.6,43,0.00,,---,0.00,VWS V13.01,2013-04-28 21:36:00,
2013-04-29 00:41:00,64.9,42.5,30.04,NE,45,2.5,2.5,44,0.00,,---,0.00,VWS V13.01,2013-04-28 21:41:00,
2013-04-29 00:46:00,64.8,42.4,30.04,North,0,0.0,2.5,44,0.00,,---,0.00,VWS V13.01,2013-04-28 21:46:00,
2013-04-29 00:51:00,64.6,42.2,30.05,North,0,1.1,1.1,44,0.00,,---,0.00,VWS V13.01,2013-04-28 21:51:00,
2013-04-29 00:56:00,64.4,42.0,30.05,NNW,337,0.0,1.1,44,0.00,,---,0.00,VWS V13.01,2013-04-28 21:56:00,
2013-04-29 01:01:00,64.2,41.8,30.04,NNE,22,0.0,1.6,44,0.00,,---,0.00,VWS V13.01,2013-04-28 22:01:00,
2013-04-29 01:06:00,64.2,41.8,30.04,North,0,0.0,1.3,44,0.00,,---,0.00,VWS V13.01,2013-04-28 22:06:00,
2013-04-29 01:11:00,64.0,42.3,30.04,NNW,337,2.5,3.1,45,0.00,,---,0.00,VWS V13.01,2013-04-28 22:11:00,
2013-04-29 01:16:00,63.7,41.4,30.04,North,0,0.9,2.2,44,0.00,,---,0.00,VWS V13.01,2013-04-28 22:16:00,
2013-04-29 01:21:00,63.5,41.2,30.04,NNE,22,3.8,3.8,44,0.00,,---,0.00,VWS V13.01,2013-04-28 22:21:00,
2013-04-29 01:26:00,63.3,41.0,30.04,North,0,2.2,2.2,44,0.00,,---,0.00,VWS V13.01,2013-04-28 22:26:00,
2013-04-29 01:31:00,63.1,41.4,30.04,North,0,0.0,2.2,45,0.00,,---,0.00,VWS V13.01,2013-04-28 22:31:00,
2013-04-29 01:36:00,63.1,41.4,30.04,NNW,337,0.0,1.8,45,0.00,,---,0.00,VWS V13.01,2013-04-28 22:36:00,
2013-04-29 01:41:00,63.0,41.3,30.04,NNW,337,3.6,3.6,45,0.00,,---,0.00,VWS V13.01,2013-04-28 22:41:00,
2013-04-29 01:46:00,62.8,41.2,30.05,North,0,0.0,2.5,45,0.00,,---,0.00,VWS V13.01,2013-04-28 22:46:00,
2013-04-29 01:51:00,62.8,41.2,30.05,NNE,22,1.3,4.3,45,0.00,,---,0.00,VWS V13.01,2013-04-28 22:51:00,
2013-04-29 01:56:00,62.6,41.0,30.04,NNW,337,0.0,1.6,45,0.00,,---,0.00,VWS V13.01,2013-04-28 22:56:00,
2013-04-29 02:02:00,62.4,40.8,30.04,North,0,0.9,3.6,45,0.00,,---,0.00,VWS V13.01,2013-04-28 23:02:00,
2013-04-29 02:07:00,62.4,40.8,30.04,North,0,2.0,5.6,45,0.00,,---,0.00,VWS V13.01,2013-04-28 23:07:00,
2013-04-29 02:12:00,62.2,40.6,30.04,NNE,22,0.9,0.9,45,0.00,,---,0.00,VWS V13.01,2013-04-28 23:12:00,
2013-04-29 02:17:00,62.2,41.2,30.05,NNE,22,2.0,2.2,46,0.00,,---,0.00,VWS V13.01,2013-04-28 23:17:00,
2013-04-29 02:22:00,62.2,41.2,30.04,WNW,292,0.9,1.8,46,0.00,,---,0.00,VWS V13.01,2013-04-28 23:22:00,
2013-04-29 02:27:00,62.2,41.2,30.04,NE,45,0.0,4.7,46,0.00,,---,0.00,VWS V13.01,2013-04-28 23:27:00,
2013-04-29 02:32:00,62.2,41.2,30.04,NNE,22,4.0,4.0,46,0.00,,---,0.00,VWS V13.01,2013-04-28 23:32:00,
2013-04-29 02:37:00,62.1,41.1,30.04,NNE,22,0.0,2.5,46,0.00,,---,0.00,VWS V13.01,2013-04-28 23:37:00,
2013-04-29 02:42:00,62.1,41.1,30.04,North,0,0.0,4.5,46,0.00,,---,0.00,VWS V13.01,2013-04-28 23:42:00,
2013-04-29 02:47:00,62.1,41.1,30.04,NNW,337,0.0,2.7,46,0.00,,---,0.00,VWS V13.01,2013-04-28 23:47:00,
2013-04-29 02:52:00,62.1,41.1,30.04,NNE,22,0.0,3.6,46,0.00,,---,0.00,VWS V13.01,2013-04-28 23:52:00,
2013-04-29 02:57:00,61.9,40.9,30.04,North,0,0.0,3.6,46,0.00,,---,0.00,VWS V13.01,2013-04-28 23:57:00,
2013-04-29 03:02:00,61.9,40.9,30.04,NE,45,0.0,2.2,46,0.00,,---,0.00,VWS V13.01,2013-04-29 00:02:00,
2013-04-29 03:07:00,61.9,40.9,30.03,North,0,0.0,1.1,46,0.00,,---,0.00,VWS V13.01,2013-04-29 00:07:00,
2013-04-29 03:12:00,61.9,41.5,30.04,NNW,337,0.0,1.1,47,0.00,,---,0.00,VWS V13.01,2013-04-29 00:12:00,
2013-04-29 03:17:00,61.7,41.3,30.03,North,0,4.3,4.3,47,0.00,,---,0.00,VWS V13.01,2013-04-29 00:17:00,
2013-04-29 03:22:00,61.5,41.1,30.04,NNW,337,2.9,2.9,47,0.00,,---,0.00,VWS V13.01,2013-04-29 00:22:00,
2013-04-29 03:27:00,61.3,40.9,30.03,NNE,22,1.3,3.4,47,0.00,,---,0.00,VWS V13.01,2013-04-29 00:27:00,
2013-04-29 03:32:00,61.2,40.8,30.04,North,0,2.9,2.9,47,0.00,,---,0.00,VWS V13.01,2013-04-29 00:32:00,
2013-04-29 03:37:00,61.0,40.7,30.04,NNW,337,3.8,4.0,47,0.00,,---,0.00,VWS V13.01,2013-04-29 00:37:00,
2013-04-29 03:42:00,60.6,40.3,30.04,North,0,0.0,2.7,47,0.00,,---,0.00,VWS V13.01,2013-04-29 00:42:00,
2013-04-29 03:47:00,60.6,40.3,30.04,North,0,0.0,4.0,47,0.00,,---,0.00,VWS V13.01,2013-04-29 00:47:00,
2013-04-29 03:52:00,60.4,40.1,30.04,NNW,337,3.1,3.1,47,0.00,,---,0.00,VWS V13.01,2013-04-29 00:52:00,
2013-04-29 03:57:00,60.3,40.0,30.03,NNW,337,0.0,5.4,47,0.00,,---,0.00,VWS V13.01,2013-04-29 00:57:00,
2013-04-29 04:02:00,60.1,40.4,30.03,North,0,0.0,3.4,48,0.00,,---,0.00,VWS V13.01,2013-04-29 01:02:00,
2013-04-29 04:07:00,60.1,40.4,30.03,NNW,337,2.9,2.9,48,0.00,,---,0.00,VWS V13.01,2013-04-29 01:07:00,
2013-04-29 04:12:00,59.9,40.2,30.03,North,0,0.0,1.6,48,0.00,,---,0.00,VWS V13.01,2013-04-29 01:12:00,
2013-04-29 04:17:00,59.9,40.2,30.03,NNW,337,0.0,4.0,48,0.00,,---,0.00,VWS V13.01,2013-04-29 01:17:00,
2013-04-29 04:22:00,59.9,40.2,30.03,NNW,337,0.0,3.4,48,0.00,,---,0.00,VWS V13.01,2013-04-29 01:22:00,
2013-04-29 04:27:00,59.7,40.0,30.03,North,0,6.5,6.5,48,0.00,,---,0.00,VWS V13.01,2013-04-29 01:27:00,
2013-04-29 04:32:00,59.5,39.8,30.03,North,0,3.1,4.0,48,0.00,,---,0.00,VWS V13.01,2013-04-29 01:32:00,
2013-04-29 04:37:00,59.5,40.3,30.03,NNW,337,2.9,3.1,49,0.00,,---,0.00,VWS V13.01,2013-04-29 01:37:00,
2013-04-29 04:43:00,59.5,40.3,30.03,North,0,2.0,5.1,49,0.00,,---,0.00,VWS V13.01,2013-04-29 01:43:00,
2013-04-29 04:48:00,59.4,40.2,30.03,North,0,4.9,4.9,49,0.00,,---,0.00,VWS V13.01,2013-04-29 01:48:00,
2013-04-29 04:53:00,59.4,40.2,30.03,ENE,67,0.0,3.4,49,0.00,,---,0.00,VWS V13.01,2013-04-29 01:53:00,
2013-04-29 04:58:00,59.2,40.6,30.03,NE,45,0.0,1.1,50,0.00,,---,0.00,VWS V13.01,2013-04-29 01:58:00,
2013-04-29 05:03:00,59.2,40.6,30.04,NE,45,0.0,2.2,50,0.00,,---,0.00,VWS V13.01,2013-04-29 02:03:00,
2013-04-29 05:08:00,59.2,40.6,30.03,NE,45,0.0,1.6,50,0.00,,---,0.00,VWS V13.01,2013-04-29 02:08:00,
2013-04-29 05:13:00,59.2,40.6,30.03,NE,45,0.0,1.6,50,0.00,,---,0.00,VWS V13.01,2013-04-29 02:13:00,
2013-04-29 05:18:00,59.2,40.6,30.03,ENE,67,0.0,1.6,50,0.00,,---,0.00,VWS V13.01,2013-04-29 02:18:00,
2013-04-29 05:23:00,59.2,41.1,30.03,NNE,22,0.0,1.6,51,0.00,,---,0.00,VWS V13.01,2013-04-29 02:23:00,
2013-04-29 05:28:00,59.2,41.1,30.03,North,0,0.0,1.3,51,0.00,,---,0.00,VWS V13.01,2013-04-29 02:28:00,
2013-04-29 05:33:00,59.4,41.3,30.03,NNE,22,0.0,1.3,51,0.00,,---,0.00,VWS V13.01,2013-04-29 02:33:00,
2013-04-29 05:38:00,59.4,41.3,30.03,North,0,0.0,1.3,51,0.00,,---,0.00,VWS V13.01,2013-04-29 02:38:00,
2013-04-29 05:43:00,59.4,41.3,30.03,North,0,0.0,1.6,51,0.00,,---,0.00,VWS V13.01,2013-04-29 02:43:00,
2013-04-29 05:48:00,59.4,41.3,30.03,North,0,0.0,1.3,51,0.00,,---,0.00,VWS V13.01,2013-04-29 02:48:00,
2013-04-29 05:53:00,59.4,41.3,30.03,NNW,337,0.0,1.1,51,0.00,,---,0.00,VWS V13.01,2013-04-29 02:53:00,
2013-04-29 05:58:00,59.4,41.3,30.03,North,0,0.0,2.2,51,0.00,,---,0.00,VWS V13.01,2013-04-29 02:58:00,
2013-04-29 06:03:00,59.5,41.4,30.03,NNW,337,0.0,1.3,51,0.00,,---,0.00,VWS V13.01,2013-04-29 03:03:00,
2013-04-29 06:08:00,59.5,41.9,30.03,North,0,0.0,2.9,52,0.00,,---,0.00,VWS V13.01,2013-04-29 03:08:00,
2013-04-29 06:13:00,59.5,41.9,30.03,North,0,2.5,2.9,52,0.00,,---,0.00,VWS V13.01,2013-04-29 03:13:00,
2013-04-29 06:18:00,59.4,41.8,30.03,NW,315,0.9,2.9,52,0.00,,---,0.00,VWS V13.01,2013-04-29 03:18:00,
2013-04-29 06:23:00,59.4,41.8,30.03,North,0,2.2,3.8,52,0.00,,---,0.00,VWS V13.01,2013-04-29 03:23:00,
2013-04-29 06:28:00,59.4,41.8,30.04,NE,45,0.0,2.5,52,0.00,,---,0.00,VWS V13.01,2013-04-29 03:28:00,
2013-04-29 06:33:00,59.2,42.1,30.04,North,0,2.5,2.9,53,0.00,,---,0.00,VWS V13.01,2013-04-29 03:33:00,
2013-04-29 06:38:00,59.2,42.1,30.05,North,0,3.4,3.4,53,0.00,,---,0.00,VWS V13.01,2013-04-29 03:38:00,
2013-04-29 06:43:00,59.2,42.1,30.05,North,0,1.3,2.7,53,0.00,,---,0.00,VWS V13.01,2013-04-29 03:43:00,
2013-04-29 06:48:00,59.2,42.1,30.04,North,0,0.0,2.9,53,0.00,,---,0.00,VWS V13.01,2013-04-29 03:48:00,
2013-04-29 06:53:00,59.2,42.1,30.05,NE,45,0.0,2.2,53,0.00,,---,0.00,VWS V13.01,2013-04-29 03:53:00,
2013-04-29 06:58:00,59.2,42.1,30.05,NNW,337,1.1,2.2,53,0.00,,---,0.00,VWS V13.01,2013-04-29 03:58:00,
2013-04-29 07:01:00,59.2,42.1,30.05,North,0,1.6,2.7,53,0.00,,---,0.00,VWS V13.01,2013-04-29 04:01:00,
2013-04-29 07:02:00,59.2,42.1,30.05,NW,315,0.0,3.4,53,0.00,,---,0.00,VWS V13.01,2013-04-29 04:02:00,
2013-04-29 07:07:00,59.2,42.6,30.05,North,0,2.7,3.1,54,0.00,,---,0.00,VWS V13.01,2013-04-29 04:07:00,
2013-04-29 07:12:00,59.2,42.6,30.05,North,0,3.1,3.1,54,0.00,,---,0.00,VWS V13.01,2013-04-29 04:12:00,
2013-04-29 07:17:00,59.4,42.8,30.05,North,0,1.3,3.1,54,0.00,,---,0.00,VWS V13.01,2013-04-29 04:17:00,
2013-04-29 07:22:00,59.5,42.9,30.05,North,0,2.7,3.4,54,0.00,,---,0.00,VWS V13.01,2013-04-29 04:22:00,
2013-04-29 07:27:00,59.5,42.9,30.05,North,0,1.1,3.4,54,0.00,,---,0.00,VWS V13.01,2013-04-29 04:27:00,
2013-04-29 07:32:00,59.5,42.9,30.06,NNW,337,0.0,2.2,54,0.00,,---,0.00,VWS V13.01,2013-04-29 04:32:00,
2013-04-29 07:37:00,59.7,43.0,30.06,North,0,2.0,2.5,54,0.00,,---,0.00,VWS V13.01,2013-04-29 04:37:00,
2013-04-29 07:42:00,59.9,42.7,30.06,NNW,337,0.0,1.8,53,0.00,,---,0.00,VWS V13.01,2013-04-29 04:42:00,
2013-04-29 07:47:00,60.1,42.9,30.06,NNW,337,0.0,1.6,53,0.00,,---,0.00,VWS V13.01,2013-04-29 04:47:00,
2013-04-29 07:52:00,60.4,43.2,30.06,NNW,337,0.0,1.6,53,0.00,,---,0.00,VWS V13.01,2013-04-29 04:52:00,
2013-04-29 07:57:00,60.6,43.4,30.06,NNW,337,0.0,1.6,53,0.00,,---,0.00,VWS V13.01,2013-04-29 04:57:00,
2013-04-29 08:02:00,61.2,43.5,30.06,NNW,337,0.0,0.9,52,0.00,,---,0.00,VWS V13.01,2013-04-29 05:02:00,
2013-04-29 08:07:00,61.5,43.7,30.07,NNW,337,0.0,0.9,52,0.00,,---,0.00,VWS V13.01,2013-04-29 05:07:00,
2013-04-29 08:12:00,61.9,44.1,30.06,North,0,0.0,0.9,52,0.00,,---,0.00,VWS V13.01,2013-04-29 05:12:00,
2013-04-29 08:17:00,62.4,44.6,30.06,NNW,337,0.0,0.9,52,0.00,,---,0.00,VWS V13.01,2013-04-29 05:17:00,
2013-04-29 08:22:00,62.8,44.9,30.07,North,0,0.0,0.9,52,0.00,,---,0.00,VWS V13.01,2013-04-29 05:22:00,
2013-04-29 08:27:00,63.1,45.2,30.07,NNW,337,0.0,0.9,52,0.00,,---,0.00,VWS V13.01,2013-04-29 05:27:00,
2013-04-29 08:32:00,63.7,45.8,30.07,North,0,0.0,0.9,52,0.00,,---,0.00,VWS V13.01,2013-04-29 05:32:00,
2013-04-29 08:37:00,64.2,45.7,30.07,NNW,337,0.0,0.9,51,0.00,,---,0.00,VWS V13.01,2013-04-29 05:37:00,
2013-04-29 08:42:00,64.9,45.8,30.07,North,0,0.0,0.9,50,0.00,,---,0.00,VWS V13.01,2013-04-29 05:42:00,
2013-04-29 08:47:00,65.5,46.4,30.07,NNW,337,0.0,0.9,50,0.00,,---,0.00,VWS V13.01,2013-04-29 05:47:00,
2013-04-29 08:52:00,66.0,46.3,30.07,North,0,0.0,0.9,49,0.00,,---,0.00,VWS V13.01,2013-04-29 05:52:00,
2013-04-29 08:57:00,66.6,46.3,30.08,ESE,112,0.0,0.9,48,0.00,,---,0.00,VWS V13.01,2013-04-29 05:57:00,
2013-04-29 09:02:00,67.1,45.7,30.08,SE,135,0.0,0.9,46,0.00,,---,0.00,VWS V13.01,2013-04-29 06:02:00,
2013-04-29 09:08:00,67.8,45.1,30.08,South,180,0.0,0.9,44,0.00,,---,0.00,VWS V13.01,2013-04-29 06:08:00,
2013-04-29 09:13:00,68.4,45.0,30.08,SE,135,0.0,0.9,43,0.00,,---,0.00,VWS V13.01,2013-04-29 06:13:00,
2013-04-29 09:18:00,68.9,44.9,30.08,South,180,0.0,0.9,42,0.00,,---,0.00,VWS V13.01,2013-04-29 06:18:00,
2013-04-29 09:23:00,69.4,44.7,30.08,SW,225,0.0,0.9,41,0.00,,---,0.00,VWS V13.01,2013-04-29 06:23:00,
2013-04-29 09:28:00,70.0,44.6,30.08,ESE,112,0.0,0.9,40,0.00,,---,0.00,VWS V13.01,2013-04-29 06:28:00,
2013-04-29 09:33:00,70.5,45.0,30.08,SE,135,0.0,0.9,40,0.00,,---,0.00,VWS V13.01,2013-04-29 06:33:00,
2013-04-29 09:38:00,71.1,45.6,30.08,SW,225,0.0,0.9,40,0.00,,---,0.00,VWS V13.01,2013-04-29 06:38:00,
2013-04-29 09:43:00,71.4,45.8,30.08,SSE,157,0.0,0.9,40,0.00,,---,0.00,VWS V13.01,2013-04-29 06:43:00,
2013-04-29 09:48:00,72.1,46.5,30.08,SW,225,2.5,2.5,40,0.00,,---,0.00,VWS V13.01,2013-04-29 06:48:00,
2013-04-29 09:53:00,72.5,46.2,30.09,WSW,247,0.0,6.0,39,0.00,,---,0.00,VWS V13.01,2013-04-29 06:53:00,
2013-04-29 09:58:00,73.6,44.3,30.09,South,180,0.0,4.3,35,0.00,,---,0.00,VWS V13.01,2013-04-29 06:58:00,
2013-04-29 10:03:00,75.6,44.5,30.09,SW,225,0.0,3.8,33,0.00,,---,0.00,VWS V13.01,2013-04-29 07:03:00,
2013-04-29 10:08:00,76.3,44.3,30.09,SSE,157,0.0,3.6,32,0.00,,---,0.00,VWS V13.01,2013-04-29 07:08:00,
2013-04-29 10:13:00,76.6,43.7,30.09,South,180,0.0,2.9,31,0.00,,---,0.00,VWS V13.01,2013-04-29 07:13:00,
2013-04-29 10:18:00,76.8,43.9,30.09,SSW,202,0.0,3.4,31,0.00,,---,0.00,VWS V13.01,2013-04-29 07:18:00,
2013-04-29 10:23:00,77.2,43.4,30.09,South,180,1.1,2.5,30,0.00,,---,0.00,VWS V13.01,2013-04-29 07:23:00,
2013-04-29 10:28:00,77.4,43.6,30.09,SSW,202,0.0,3.6,30,0.00,,---,0.00,VWS V13.01,2013-04-29 07:28:00,
2013-04-29 10:33:00,77.9,44.0,30.09,SE,135,0.0,1.8,30,0.00,,---,0.00,VWS V13.01,2013-04-29 07:33:00,
2013-04-29 10:38:00,78.4,44.4,30.09,SSW,202,1.8,1.8,30,0.00,,---,0.00,VWS V13.01,2013-04-29 07:38:00,
2013-04-29 10:43:00,78.6,44.6,30.09,SSW,202,0.9,3.6,30,0.00,,---,0.00,VWS V13.01,2013-04-29 07:43:00,
2013-04-29 10:48:00,79.0,44.1,30.09,SW,225,1.8,1.8,29,0.00,,---,0.00,VWS V13.01,2013-04-29 07:48:00,
2013-04-29 10:53:00,79.3,44.3,30.09,SW,225,0.0,4.7,29,0.00,,---,0.00,VWS V13.01,2013-04-29 07:53:00,
2013-04-29 10:58:00,79.3,44.3,30.10,SSW,202,1.6,1.6,29,0.00,,---,0.00,VWS V13.01,2013-04-29 07:58:00,
2013-04-29 11:03:00,79.5,44.5,30.10,SSE,157,3.4,6.0,29,0.00,,---,0.00,VWS V13.01,2013-04-29 08:03:00,
2013-04-29 11:08:00,79.5,44.5,30.09,SSE,157,0.0,6.0,29,0.00,,---,0.00,VWS V13.01,2013-04-29 08:08:00,
2013-04-29 11:13:00,79.9,44.8,30.10,South,180,2.0,4.0,29,0.00,,---,0.00,VWS V13.01,2013-04-29 08:13:00,
2013-04-29 11:18:00,80.1,45.0,30.09,WSW,247,0.0,3.8,29,0.00,,---,0.00,VWS V13.01,2013-04-29 08:18:00,
2013-04-29 11:23:00,80.4,45.3,30.09,SSE,157,0.0,8.1,29,0.00,,---,0.00,VWS V13.01,2013-04-29 08:23:00,
2013-04-29 11:28:00,81.0,45.8,30.09,West,270,3.8,3.8,29,0.00,,---,0.00,VWS V13.01,2013-04-29 08:28:00,
2013-04-29 11:33:00,81.1,45.9,30.09,SSW,202,8.3,8.3,29,0.00,,---,0.00,VWS V13.01,2013-04-29 08:33:00,
2013-04-29 11:38:00,81.3,46.0,30.09,SW,225,0.0,7.4,29,0.00,,---,0.00,VWS V13.01,2013-04-29 08:38:00,
2013-04-29 11:43:00,81.5,45.3,30.09,SSW,202,0.0,1.3,28,0.00,,---,0.00,VWS V13.01,2013-04-29 08:43:00,
2013-04-29 11:48:00,82.0,45.7,30.09,South,180,3.6,3.6,28,0.00,,---,0.00,VWS V13.01,2013-04-29 08:48:00,
2013-04-29 11:53:00,82.4,46.1,30.09,SSW,202,1.6,4.9,28,0.00,,---,0.00,VWS V13.01,2013-04-29 08:53:00,
2013-04-29 11:58:00,82.8,45.4,30.09,SW,225,0.7,3.4,27,0.00,,---,0.00,VWS V13.01,2013-04-29 08:58:00,
2013-04-29 12:03:00,82.0,46.6,30.08,South,180,3.6,4.5,29,0.00,,---,0.00,VWS V13.01,2013-04-29 09:03:00,
2013-04-29 12:08:00,82.6,47.2,30.08,SSE,157,0.0,2.9,29,0.00,,---,0.00,VWS V13.01,2013-04-29 09:08:00,
2013-04-29 12:13:00,83.5,47.0,30.08,SE,135,0.9,4.7,28,0.00,,---,0.00,VWS V13.01,2013-04-29 09:13:00,
2013-04-29 12:18:00,83.7,47.2,30.08,South,180,2.2,2.2,28,0.00,,---,0.00,VWS V13.01,2013-04-29 09:18:00,
2013-04-29 12:23:00,83.5,47.0,30.08,SW,225,0.0,0.9,28,0.00,,---,0.00,VWS V13.01,2013-04-29 09:23:00,
2013-04-29 12:28:00,83.3,47.8,30.08,SSW,202,0.0,2.0,29,0.00,,---,0.00,VWS V13.01,2013-04-29 09:28:00,
2013-04-29 12:33:00,84.4,47.8,30.08,South,180,1.6,2.5,28,0.00,,---,0.00,VWS V13.01,2013-04-29 09:33:00,
2013-04-29 12:38:00,84.6,47.9,30.07,SSE,157,1.6,1.6,28,0.00,,---,0.00,VWS V13.01,2013-04-29 09:38:00,
2013-04-29 12:43:00,84.6,47.9,30.08,SSE,157,6.3,7.6,28,0.00,,---,0.00,VWS V13.01,2013-04-29 09:43:00,
2013-04-29 12:48:00,84.4,47.8,30.08,SW,225,0.0,2.5,28,0.00,,---,0.00,VWS V13.01,2013-04-29 09:48:00,
2013-04-29 12:53:00,84.9,48.2,30.08,SW,225,0.0,6.3,28,0.00,,---,0.00,VWS V13.01,2013-04-29 09:53:00,
2013-04-29 12:58:00,85.3,48.5,30.07,SSE,157,0.0,2.0,28,0.00,,---,0.00,VWS V13.01,2013-04-29 09:58:00,
2013-04-29 13:03:00,85.3,48.5,30.08,East,90,0.0,2.5,28,0.00,,---,0.00,VWS V13.01,2013-04-29 10:03:00,
2013-04-29 13:08:00,84.9,48.2,30.07,SW,225,0.0,2.2,28,0.00,,---,0.00,VWS V13.01,2013-04-29 10:08:00,
2013-04-29 13:13:00,84.7,48.0,30.07,WNW,292,0.0,2.0,28,0.00,,---,0.00,VWS V13.01,2013-04-29 10:13:00,
2013-04-29 13:18:00,84.7,48.0,30.07,ESE,112,1.3,1.3,28,0.00,,---,0.00,VWS V13.01,2013-04-29 10:18:00,
2013-04-29 13:23:00,85.3,48.5,30.07,SSW,202,2.7,2.7,28,0.00,,---,0.00,VWS V13.01,2013-04-29 10:23:00,
2013-04-29 13:28:00,85.6,46.8,30.07,SE,135,4.0,4.0,26,0.00,,---,0.00,VWS V13.01,2013-04-29 10:28:00,
2013-04-29 13:33:00,85.6,45.8,30.07,ENE,67,1.6,9.2,25,0.00,,---,0.00,VWS V13.01,2013-04-29 10:33:00,
2013-04-29 13:38:00,85.3,45.5,30.06,North,0,0.7,1.8,25,0.00,,---,0.00,VWS V13.01,2013-04-29 10:38:00,
2013-04-29 13:43:00,85.3,45.5,30.07,SSE,157,1.8,5.1,25,0.00,,---,0.00,VWS V13.01,2013-04-29 10:43:00,
2013-04-29 13:48:00,85.6,45.8,30.07,North,0,0.0,6.0,25,0.00,,---,0.00,VWS V13.01,2013-04-29 10:48:00,
2013-04-29 13:53:00,85.6,43.6,30.06,NE,45,0.0,6.0,23,0.00,,---,0.00,VWS V13.01,2013-04-29 10:53:00,
2013-04-29 13:58:00,84.9,45.2,30.06,NNW,337,0.0,2.5,25,0.00,,---,0.00,VWS V13.01,2013-04-29 10:58:00,
2013-04-29 14:03:00,84.9,45.2,30.06,NW,315,0.0,5.8,25,0.00,,---,0.00,VWS V13.01,2013-04-29 11:03:00,
2013-04-29 14:08:00,85.1,43.2,30.06,West,270,0.0,3.1,23,0.00,,---,0.00,VWS V13.01,2013-04-29 11:08:00,
2013-04-29 14:13:00,85.8,43.8,30.06,SSE,157,0.0,6.9,23,0.00,,---,0.00,VWS V13.01,2013-04-29 11:13:00,
2013-04-29 14:18:00,85.6,43.6,30.06,NW,315,4.0,4.0,23,0.00,,---,0.00,VWS V13.01,2013-04-29 11:18:00,
2013-04-29 14:23:00,86.2,46.3,30.06,NW,315,0.0,3.1,25,0.00,,---,0.00,VWS V13.01,2013-04-29 11:23:00,
2013-04-29 14:28:00,86.4,44.3,30.06,NE,45,1.6,1.6,23,0.00,,---,0.00,VWS V13.01,2013-04-29 11:28:00,
2013-04-29 14:33:00,86.2,46.3,30.06,NNE,22,2.0,3.6,25,0.00,,---,0.00,VWS V13.01,2013-04-29 11:33:00,
2013-04-29 14:38:00,87.1,48.1,30.05,West,270,2.0,2.0,26,0.00,,---,0.00,VWS V13.01,2013-04-29 11:38:00,
2013-04-29 14:43:00,86.2,47.3,30.05,SSW,202,1.3,3.6,26,0.00,,---,0.00,VWS V13.01,2013-04-29 11:43:00,
2013-04-29 14:48:00,86.5,47.6,30.05,NE,45,0.0,2.2,26,0.00,,---,0.00,VWS V13.01,2013-04-29 11:48:00,
2013-04-29 14:53:00,86.2,47.3,30.05,South,180,0.0,3.6,26,0.00,,---,0.00,VWS V13.01,2013-04-29 11:53:00,
2013-04-29 14:58:00,85.6,46.8,30.05,West,270,3.8,3.8,26,0.00,,---,0.00,VWS V13.01,2013-04-29 11:58:00,
2013-04-29 15:03:00,84.6,46.0,30.05,ESE,112,0.0,4.3,26,0.00,,---,0.00,VWS V13.01,2013-04-29 12:03:00,
2013-04-29 15:08:00,86.2,47.3,30.05,SSW,202,0.0,2.2,26,0.00,,---,0.00,VWS V13.01,2013-04-29 12:08:00,
2013-04-29 15:13:00,87.1,47.0,30.05,NNW,337,0.0,3.1,25,0.00,,---,0.00,VWS V13.01,2013-04-29 12:13:00,
2013-04-29 15:18:00,87.4,47.3,30.05,SSW,202,4.5,6.3,25,0.00,,---,0.00,VWS V13.01,2013-04-29 12:18:00,
2013-04-29 15:23:00,86.4,47.5,30.05,WSW,247,0.0,3.1,26,0.00,,---,0.00,VWS V13.01,2013-04-29 12:23:00,
2013-04-29 15:28:00,86.5,47.6,30.05,WSW,247,0.0,4.9,26,0.00,,---,0.00,VWS V13.01,2013-04-29 12:28:00,
2013-04-29 15:33:00,85.8,48.0,30.05,SSE,157,7.4,8.7,27,0.00,,---,0.00,VWS V13.01,2013-04-29 12:33:00,
2013-04-29 15:38:00,84.7,47.1,30.05,SE,135,4.7,6.3,27,0.00,,---,0.00,VWS V13.01,2013-04-29 12:38:00,
2013-04-29 15:43:00,84.7,48.0,30.05,West,270,4.7,6.7,28,0.00,,---,0.00,VWS V13.01,2013-04-29 12:43:00,
2013-04-29 15:48:00,85.1,48.4,30.05,SSW,202,4.7,7.8,28,0.00,,---,0.00,VWS V13.01,2013-04-29 12:48:00,
2013-04-29 15:53:00,84.4,47.8,30.05,South,180,5.6,8.1,28,0.00,,---,0.00,VWS V13.01,2013-04-29 12:53:00,
2013-04-29 15:58:00,84.0,48.4,30.05,WNW,292,0.0,3.8,29,0.00,,---,0.00,VWS V13.01,2013-04-29 12:58:00,
2013-04-29 16:03:00,83.5,47.9,30.05,SSW,202,1.6,8.9,29,0.00,,---,0.00,VWS V13.01,2013-04-29 13:03:00,
2013-04-29 16:08:00,83.5,48.8,30.05,SSW,202,1.1,3.4,30,0.00,,---,0.00,VWS V13.01,2013-04-29 13:08:00,
2013-04-29 16:13:00,83.7,48.1,30.05,South,180,1.1,6.9,29,0.00,,---,0.00,VWS V13.01,2013-04-29 13:13:00,
2013-04-29 16:18:00,83.8,48.2,30.05,WSW,247,5.8,9.2,29,0.00,,---,0.00,VWS V13.01,2013-04-29 13:18:00,
2013-04-29 16:23:00,83.5,48.8,30.04,South,180,8.9,12.8,30,0.00,,---,0.00,VWS V13.01,2013-04-29 13:23:00,
2013-04-29 16:28:00,83.1,48.5,30.04,South,180,6.0,10.5,30,0.00,,---,0.00,VWS V13.01,2013-04-29 13:28:00,
2013-04-29 16:34:00,82.8,47.3,30.05,SW,225,8.3,8.3,29,0.00,,---,0.00,VWS V13.01,2013-04-29 13:34:00,
2013-04-29 16:39:00,82.2,47.7,30.05,SW,225,0.0,4.0,30,0.00,,---,0.00,VWS V13.01,2013-04-29 13:39:00,
2013-04-29 16:44:00,82.4,47.9,30.05,West,270,0.0,4.7,30,0.00,,---,0.00,VWS V13.01,2013-04-29 13:44:00,
2013-04-29 16:49:00,82.2,47.7,30.05,SW,225,4.7,10.5,30,0.00,,---,0.00,VWS V13.01,2013-04-29 13:49:00,
2013-04-29 16:54:00,82.6,48.1,30.05,SSW,202,10.7,10.7,30,0.00,,---,0.00,VWS V13.01,2013-04-29 13:54:00,
2013-04-29 16:59:00,82.8,48.2,30.05,SSW,202,6.0,9.6,30,0.00,,---,0.00,VWS V13.01,2013-04-29 13:59:00,
2013-04-29 17:04:00,82.2,47.7,30.05,SSW,202,0.0,6.7,30,0.00,,---,0.00,VWS V13.01,2013-04-29 14:04:00,
2013-04-29 17:09:00,82.0,47.5,30.05,South,180,4.9,10.7,30,0.00,,---,0.00,VWS V13.01,2013-04-29 14:09:00,
2013-04-29 17:16:00,81.7,48.2,30.05,South,180,2.7,8.1,31,0.00,,---,0.00,VWS V13.01,2013-04-29 14:16:00,
2013-04-29 17:21:00,81.5,48.0,30.05,SW,225,8.1,8.9,31,0.00,,---,0.00,VWS V13.01,2013-04-29 14:21:00,
2013-04-29 17:26:00,81.5,48.0,30.05,South,180,3.1,6.7,31,0.00,,---,0.00,VWS V13.01,2013-04-29 14:26:00,
2013-04-29 17:31:00,81.7,48.2,30.05,SW,225,0.0,1.8,31,0.00,,---,0.00,VWS V13.01,2013-04-29 14:31:00,
2013-04-29 17:36:00,81.7,48.2,30.05,WSW,247,0.0,4.9,31,0.00,,---,0.00,VWS V13.01,2013-04-29 14:36:00,
2013-04-29 17:41:00,81.5,47.1,30.05,South,180,0.0,0.9,30,0.00,,---,0.00,VWS V13.01,2013-04-29 14:41:00,
2013-04-29 17:46:00,81.5,48.0,30.05,SE,135,0.0,5.4,31,0.00,,---,0.00,VWS V13.01,2013-04-29 14:46:00,
2013-04-29 17:51:00,81.7,48.2,30.05,SSW,202,0.0,5.4,31,0.00,,---,0.00,VWS V13.01,2013-04-29 14:51:00,
2013-04-29 17:56:00,81.7,47.3,30.05,SW,225,5.1,5.1,30,0.00,,---,0.00,VWS V13.01,2013-04-29 14:56:00,
2013-04-29 18:01:00,81.7,47.3,30.05,South,180,0.0,5.4,30,0.00,,---,0.00,VWS V13.01,2013-04-29 15:01:00,
2013-04-29 18:06:00,81.3,47.8,30.05,SSE,157,1.8,1.8,31,0.00,,---,0.00,VWS V13.01,2013-04-29 15:06:00,
2013-04-29 18:11:00,81.1,47.6,30.05,SW,225,5.1,5.1,31,0.00,,---,0.00,VWS V13.01,2013-04-29 15:11:00,
2013-04-29 18:16:00,81.1,47.6,30.04,South,180,1.1,1.1,31,0.00,,---,0.00,VWS V13.01,2013-04-29 15:16:00,
2013-04-29 18:21:00,81.1,47.6,30.05,South,180,0.0,2.7,31,0.00,,---,0.00,VWS V13.01,2013-04-29 15:21:00,
2013-04-29 18:26:00,80.8,48.2,30.05,SW,225,0.0,4.3,32,0.00,,---,0.00,VWS V13.01,2013-04-29 15:26:00,
2013-04-29 18:31:00,80.4,47.9,30.05,South,180,0.0,2.9,32,0.00,,---,0.00,VWS V13.01,2013-04-29 15:31:00,
2013-04-29 18:36:00,80.2,47.7,30.05,SSE,157,0.0,5.4,32,0.00,,---,0.00,VWS V13.01,2013-04-29 15:36:00,
2013-04-29 18:41:00,80.2,47.7,30.05,South,180,0.0,3.4,32,0.00,,---,0.00,VWS V13.01,2013-04-29 15:41:00,
2013-04-29 18:46:00,79.9,47.4,30.05,NW,315,0.0,2.5,32,0.00,,---,0.00,VWS V13.01,2013-04-29 15:46:00,
2013-04-29 18:51:00,79.5,48.7,30.05,SSW,202,0.0,1.6,34,0.00,,---,0.00,VWS V13.01,2013-04-29 15:51:00,
2013-04-29 18:56:00,79.3,48.5,30.05,West,270,0.0,1.6,34,0.00,,---,0.00,VWS V13.01,2013-04-29 15:56:00,
2013-04-29 19:01:00,79.3,48.5,30.05,South,180,0.0,1.6,34,0.00,,---,0.00,VWS V13.01,2013-04-29 16:01:00,
2013-04-29 19:06:00,79.3,48.5,30.04,NW,315,0.0,1.6,34,0.00,,---,0.00,VWS V13.01,2013-04-29 16:06:00,
2013-04-29 19:11:00,79.3,46.9,30.05,ENE,67,0.0,1.1,32,0.00,,---,0.00,VWS V13.01,2013-04-29 16:11:00,
2013-04-29 19:16:00,79.5,46.2,30.05,WNW,292,0.0,2.5,31,0.00,,---,0.00,VWS V13.01,2013-04-29 16:16:00,
2013-04-29 19:21:00,79.5,46.2,30.05,ENE,67,0.0,2.5,31,0.00,,---,0.00,VWS V13.01,2013-04-29 16:21:00,
2013-04-29 19:26:00,79.5,46.2,30.05,North,0,3.8,5.1,31,0.00,,---,0.00,VWS V13.01,2013-04-29 16:26:00,
2013-04-29 19:31:00,79.5,46.2,30.05,ENE,67,0.0,5.1,31,0.00,,---,0.00,VWS V13.01,2013-04-29 16:31:00,
2013-04-29 19:36:00,79.3,46.1,30.05,ESE,112,0.0,2.5,31,0.00,,---,0.00,VWS V13.01,2013-04-29 16:36:00,
2013-04-29 19:41:00,79.3,46.1,30.05,NW,315,0.0,4.3,31,0.00,,---,0.00,VWS V13.01,2013-04-29 16:41:00,
2013-04-29 19:46:00,79.2,45.1,30.05,NNE,22,0.0,3.8,30,0.00,,---,0.00,VWS V13.01,2013-04-29 16:46:00,
2013-04-29 19:51:00,79.0,45.0,30.05,ESE,112,0.0,4.7,30,0.00,,---,0.00,VWS V13.01,2013-04-29 16:51:00,
2013-04-29 19:56:00,79.0,45.8,30.05,SE,135,0.0,1.6,31,0.00,,---,0.00,VWS V13.01,2013-04-29 16:56:00,
2013-04-29 20:01:00,78.6,47.1,30.05,SSW,202,0.0,2.2,33,0.00,,---,0.00,VWS V13.01,2013-04-29 17:01:00,
2013-04-29 20:06:00,78.4,49.3,30.05,SSE,157,0.0,1.6,36,0.00,,---,0.00,VWS V13.01,2013-04-29 17:06:00,
2013-04-29 20:11:00,78.1,49.7,30.05,SSE,157,0.0,1.3,37,0.00,,---,0.00,VWS V13.01,2013-04-29 17:11:00,
2013-04-29 20:16:00,77.7,50.1,30.06,SSE,157,0.0,1.3,38,0.00,,---,0.00,VWS V13.01,2013-04-29 17:16:00,
2013-04-29 20:21:00,77.4,50.5,30.06,SSW,202,0.0,1.3,39,0.00,,---,0.00,VWS V13.01,2013-04-29 17:21:00,
2013-04-29 20:26:00,77.0,50.9,30.06,SSW,202,0.0,1.3,40,0.00,,---,0.00,VWS V13.01,2013-04-29 17:26:00,
2013-04-29 20:31:00,76.6,51.2,30.06,SSE,157,0.0,1.3,41,0.00,,---,0.00,VWS V13.01,2013-04-29 17:31:00,
2013-04-29 20:36:00,76.3,51.5,30.06,SSE,157,0.0,1.1,42,0.00,,---,0.00,VWS V13.01,2013-04-29 17:36:00,
2013-04-29 20:41:00,75.9,51.8,30.06,SSE,157,0.0,1.1,43,0.00,,---,0.00,VWS V13.01,2013-04-29 17:41:00,
2013-04-29 20:46:00,75.7,51.6,30.06,ENE,67,0.0,1.1,43,0.00,,---,0.00,VWS V13.01,2013-04-29 17:46:00,
2013-04-29 20:51:00,75.4,51.4,30.06,ENE,67,0.0,1.1,43,0.00,,---,0.00,VWS V13.01,2013-04-29 17:51:00,
2013-04-29 20:56:00,75.0,51.6,30.06,ESE,112,0.0,1.1,44,0.00,,---,0.00,VWS V13.01,2013-04-29 17:56:00,
2013-04-29 21:01:00,75.0,51.0,30.06,NNW,337,0.0,0.7,43,0.00,,---,0.00,VWS V13.01,2013-04-29 18:01:00,
2013-04-29 21:06:00,74.7,49.5,30.06,NNE,22,0.0,0.7,41,0.00,,---,0.00,VWS V13.01,2013-04-29 18:06:00,
2013-04-29 21:11:00,74.5,49.9,30.07,SSW,202,0.0,0.7,42,0.00,,---,0.00,VWS V13.01,2013-04-29 18:11:00,
2013-04-29 21:16:00,74.3,51.0,30.07,WSW,247,0.0,0.7,44,0.00,,---,0.00,VWS V13.01,2013-04-29 18:16:00,
2013-04-29 21:21:00,74.1,51.4,30.07,WNW,292,0.0,0.7,45,0.00,,---,0.00,VWS V13.01,2013-04-29 18:21:00,
2013-04-29 21:26:00,73.9,51.2,30.07,SW,225,0.0,0.7,45,0.00,,---,0.00,VWS V13.01,2013-04-29 18:26:00,
2013-04-29 21:31:00,73.6,51.6,30.07,ENE,67,0.0,0.7,46,0.00,,---,0.00,VWS V13.01,2013-04-29 18:31:00,
2013-04-29 21:36:00,73.4,51.4,30.07,ENE,67,0.0,0.7,46,0.00,,---,0.00,VWS V13.01,2013-04-29 18:36:00,
2013-04-29 21:41:00,73.2,51.2,30.08,ENE,67,0.0,0.7,46,0.00,,---,0.00,VWS V13.01,2013-04-29 18:41:00,
2013-04-29 21:46:00,72.9,51.5,30.08,ENE,67,0.0,0.7,47,0.00,,---,0.00,VWS V13.01,2013-04-29 18:46:00,
2013-04-29 21:51:00,72.7,51.3,30.08,NNW,337,0.0,0.7,47,0.00,,---,0.00,VWS V13.01,2013-04-29 18:51:00,
2013-04-29 21:57:00,72.3,51.5,30.08,South,180,0.0,0.7,48,0.00,,---,0.00,VWS V13.01,2013-04-29 18:57:00,
2013-04-29 22:02:00,72.3,52.1,30.08,NNW,337,0.0,0.7,49,0.00,,---,0.00,VWS V13.01,2013-04-29 19:02:00,
2013-04-29 22:07:00,72.1,51.9,30.08,SW,225,0.0,0.7,49,0.00,,---,0.00,VWS V13.01,2013-04-29 19:07:00,
2013-04-29 22:12:00,71.8,52.2,30.08,WNW,292,0.0,0.7,50,0.00,,---,0.00,VWS V13.01,2013-04-29 19:12:00,
2013-04-29 22:17:00,71.4,50.7,30.08,WNW,292,0.0,0.7,48,0.00,,---,0.00,VWS V13.01,2013-04-29 19:17:00,
2013-04-29 22:22:00,71.2,48.8,30.08,NW,315,1.8,1.8,45,0.00,,---,0.00,VWS V13.01,2013-04-29 19:22:00,
2013-04-29 22:27:00,71.2,47.0,30.08,NNW,337,2.5,2.9,42,0.00,,---,0.00,VWS V13.01,2013-04-29 19:27:00,
2013-04-29 22:32:00,71.2,45.7,30.08,North,0,1.3,1.3,40,0.00,,---,0.00,VWS V13.01,2013-04-29 19:32:00,
2013-04-29 22:37:00,70.9,45.4,30.09,NW,315,0.0,2.2,40,0.00,,---,0.00,VWS V13.01,2013-04-29 19:37:00,
2013-04-29 22:42:00,70.9,44.7,30.09,NNW,337,0.0,2.0,39,0.00,,---,0.00,VWS V13.01,2013-04-29 19:42:00,
2013-04-29 22:47:00,70.9,44.7,30.09,North,0,0.9,2.9,39,0.00,,---,0.00,VWS V13.01,2013-04-29 19:47:00,
2013-04-29 22:52:00,70.7,44.5,30.09,NNW,337,0.7,0.7,39,0.00,,---,0.00,VWS V13.01,2013-04-29 19:52:00,
2013-04-29 22:57:00,70.5,43.7,30.09,North,0,0.0,2.2,38,0.00,,---,0.00,VWS V13.01,2013-04-29 19:57:00,
2013-04-29 23:02:00,70.5,43.0,30.08,NW,315,0.0,3.4,37,0.00,,---,0.00,VWS V13.01,2013-04-29 20:02:00,
2013-04-29 23:07:00,70.3,42.8,30.09,NNW,337,1.8,1.8,37,0.00,,---,0.00,VWS V13.01,2013-04-29 20:07:00,
2013-04-29 23:12:00,70.3,43.5,30.08,NNW,337,0.0,3.1,38,0.00,,---,0.00,VWS V13.01,2013-04-29 20:12:00,
2013-04-29 23:17:00,70.2,44.1,30.08,ENE,67,0.0,2.2,39,0.00,,---,0.00,VWS V13.01,2013-04-29 20:17:00,
2013-04-29 23:22:00,70.0,43.9,30.08,North,0,0.0,2.2,39,0.00,,---,0.00,VWS V13.01,2013-04-29 20:22:00,
2013-04-29 23:27:00,69.8,43.8,30.08,NNE,22,0.0,1.3,39,0.00,,---,0.00,VWS V13.01,2013-04-29 20:27:00,
2013-04-29 23:32:00,69.6,43.6,30.08,NNW,337,0.0,1.3,39,0.00,,---,0.00,VWS V13.01,2013-04-29 20:32:00,
2013-04-29 23:37:00,69.6,43.6,30.08,North,0,0.0,1.3,39,0.00,,---,0.00,VWS V13.01,2013-04-29 20:37:00,
2013-04-29 23:42:00,69.4,44.1,30.07,North,0,0.0,1.3,40,0.00,,---,0.00,VWS V13.01,2013-04-29 20:42:00,
2013-04-29 23:47:00,69.3,43.3,30.07,NW,315,0.0,2.0,39,0.00,,---,0.00,VWS V13.01,2013-04-29 20:47:00,
2013-04-29 23:52:00,69.1,42.5,30.08,North,0,0.0,2.0,38,0.00,,---,0.00,VWS V13.01,2013-04-29 20:52:00,
2013-04-29 23:58:00,69.1,42.5,30.08,North,0,0.0,1.8,38,0.00,,---,0.00,VWS V13.01,2013-04-29 20:58:00,